Location: The Saddle
(36.8333°N, 80.3417°W)
Time: 08:05:15
(UTC-05:00)

A-11 Canister half - Pass Details

Date: 16 December 2023
Orbit: 1512 x 1687 km, 47.2° (Epoch: 27 February)

Event Time Altitude Azimuth Distance (km) Brightness Sun altitude
Rises 20:08:07 0° 218° (SW) 4,640 12.0 -35.4°
Reaches altitude 10° 20:11:09 10° 215° (SW) 3,666 11.3 -36.0°
Enters shadow 20:18:06 50° 182° (S) 1,871 9.3 -37.4°
Maximum altitude 20:20:10 60° 138° (SE) 1,724 - -37.8°
Drops below altitude 10° 20:29:26 10° 61° (ENE) 3,773 - -39.7°
Sets 20:32:36 0° 58° (ENE) 4,784 - -40.3°
